Regional Weather Roundup
Issued by NWS

Home | Current Version | Previous Version | Graphics & Text | Print | Product List | Glossary On
Versions: 1 2 3 4 5 6 7 8 9 10 11 12 13 14 15 16 17 18 19 20 21 22 23 24 25 26 27 28 29 30 31 32 33 34 35 36 37 38 39 40 41 42 43 44 45 46 47 48 49 50
000
ASUS45 KBOU 290907
RWRCO

WEATHER ROUNDUP FOR COLORADO
NATIONAL WEATHER SERVICE DENVER/BOULDER CO
300 AM MDT SUN MAR 29 2015

NOTE: "FAIR" INDICATES FEW OR NO CLOUDS BELOW 12000 FEET WITH NO
SIGNIFICANT WEATHER AND/OR OBSTRUCTIONS TO VISIBILITY.

COZ001>005-013-030-031-291000-
...NORTHWEST COLORADO...

CITY           SKY/WX    TMP DP  RH WIND       PRES   REMARKS
CRAIG          CLEAR     34  19  54 VRB5      30.26R WCI  30
HAYDEN         CLEAR     41  12  30 SW6       30.25R
MEEKER         PTCLDY    39  18  42 CALM      30.24R
MOUNT WERNER   NOT AVBL
STEAMBOAT SPGS CLEAR     41  22  47 E3        30.25R
WALDEN         CLEAR     34  16  47 N5        30.25R WCI  30
$$

COZ006>008-011-291000-
...WEST CENTRAL VALLEYS...

CITY           SKY/WX    TMP DP  RH WIND       PRES   REMARKS
GRAND JUNCTION CLOUDY    56  20  24 N8        30.14R
MONTROSE       PTCLDY    48  25  40 E8        30.20R
EAGLE          CLOUDY    48  27  43 S5        30.23S
RIFLE          MOCLDY    53  17  24 VRB3      30.18R
DELTA          MOCLDY    52  26  36 CALM      30.17R
NUCLA          PTCLDY    45  21  39 E5        30.23R
$$

COZ017>023-064>068-291000-
...SOUTHWEST COLORADO...

CITY           SKY/WX    TMP DP  RH WIND       PRES   REMARKS
DURANGO        CLEAR     38  22  52 SW3       30.22R
CORTEZ         CLEAR     37  21  52 E7        30.19F
PAGOSA SPRINGS CLEAR     36  22  56 NE3       30.26F
TELLURIDE      NOT AVBL
WOLF CREEK PAS CLEAR     32  14  47 SW15G22   30.46S WCI  22
$$

COZ009-010-012-014-032>034-037-058>063-291000-
...CENTRAL COLORADO...

CITY           SKY/WX    TMP DP  RH WIND       PRES   REMARKS
ASPEN          CLOUDY    41  29  62 S6        30.23F
BUENA VISTA    CLOUDY    46  28  47 NW13G24   30.28R
COPPER MTN     MOCLDY    32  21  64 W14G20    30.38F WCI  22
BERTHOUD PASS  MOCLDY    25  18  74 W39G46    30.35R WCI   6
COTTONWOOD PAS LGT SNOW  41  30  65 W23G38    30.31R
GUNNISON       MOCLDY    43  25  49 NW5       30.29S
KREMMLING      PTCLDY    41  10  28 CALM      30.26R
LEADVILLE      CLOUDY    32  30  92 E8        30.32F WCI  25
SALIDA         MOCLDY    50  27  40 NW16G22   30.31R
SUNLIGHT       CLOUDY    37  16  41 W5        30.41S
WILKERSON PASS CLEAR     32  27  80 NW13G25   30.34R WCI  22
$$

COZ069>075-291000-
...SAN LUIS VALLEY/SANGRE DE CRISTO MOUNTAINS...

CITY           SKY/WX    TMP DP  RH WIND       PRES   REMARKS
ALAMOSA        CLEAR     37  20  50 W9        30.21S
LA VETA PASS   CLEAR     37  18  44 SW6       30.29S
SAGUACHE       PTCLDY    41  21  45 NW6       30.23F
$$

COZ035-036-038>040-291000-
...NORTHERN COLORADO FRONT RANGE...

CITY           SKY/WX    TMP DP  RH WIND       PRES   REMARKS
DENVER INTL AP PTCLDY    57  25  29 NW14      30.08R
DMNS CITY PARK   N/A     62   9  12 NW25G31   30.08R
AURORA         NOT AVBL
FRONT RANGE AP CLEAR     54  28  37 N9        30.09R
ERIE MUNI ARPT CLEAR     46  29  52 W12       30.07R
BOULDER MUN AP CLEAR     59  14  17 W8        30.07R
CENTENNIAL     PTCLDY    57  20  23 W14       30.10R
BROOMFIELD     CLEAR     57  12  17 NW9       30.10R
FORT COLLINS   CLEAR     54  18  24 N10       30.08R
LONGMONT       CLEAR     58  17  20 NW3       30.08R
$$

COZ041-046-047-076>085-087-088-291000-
...PIKES PEAK/PALMER DIVIDE AND SOUTHERN FOOTHILLS...

CITY           SKY/WX    TMP DP  RH WIND       PRES   REMARKS
COLO. SPRINGS  PTCLDY    57  26  30 NW14G24   30.10R
A. F. ACADEMY  CLEAR     46  27  46 N9        30.12R
ELLICOTT       PTCLDY   N/A N/A N/A N10       30.08R
FALCON         PTCLDY    50  26  40 NW10      30.14R
FORT CARSON    PTCLDY    57  27  31 N24G30    30.05S
LIMON          PTCLDY    54  31  41 N20       30.04R
MONUMENT HILL  CLEAR     43  30  61 W10       30.14S
TRINIDAD       CLEAR     49  24  37 SW12      30.06S
$$

COZ042>045-048>051-090-091-291000-
...NORTHEAST COLORADO...

CITY           SKY/WX    TMP DP  RH WIND       PRES   REMARKS
GREELEY ARPT   CLEAR     52  21  30 N25G31    30.06R
AKRON          PTCLDY    48  30  49 N22       30.07R
BURLINGTON     MOCLDY    63  28  26 N21G26    29.96S
WRAY           MOCLDY    56  34  42 N16G25    30.02R
STERLING       PTCLDY    48  28  46 N13       30.06R
HOLYOKE        NOT AVBL
FORT MORGAN    PTCLDY    48 -26   4 N18       30.09R
$$

COZ086-089-092>099-291000-
...SOUTHEAST COLORADO...

CITY           SKY/WX    TMP DP  RH WIND       PRES   REMARKS
PUEBLO         CLEAR     52  25  35 NW10      30.00R
LA JUNTA       CLEAR     53  25  33 W13       29.96R
LAMAR          CLEAR     53  28  38 NW7       29.91R
SPRINGFIELD      N/A     54  26  34 W16       29.93S
$$



USA.gov is the U.S. government's official web portal to all federal, state and local government web resources and services.